When you browse on this site, cookies collect data to enhance your experience and personalize the content and advertising you see.
Visit our Privacy Policy to learn more. By continuing to use the site, you agree to this use of cookies and data.
  • en Suisse
  • Liste des pays
  • À 7 jours
  • Température de l'eau
  • Carte météo
  • Widgets météo
  • user-avatar
    Se connecter

    Météo par heure à Cairns

    Ce jour, 6 Juin, Samedi

    Heure Température Précipitation Vent Pression Humidité
    00:00 +21°C° 0 mm 5 m/s 762 mmHg 96%
    01:00 +20°C° 0 mm 5 m/s 762 mmHg 97%
    02:00 +20°C° 0.1 mm 5 m/s 761 mmHg 97%
    03:00 +20°C° 0.1 mm 5 m/s 761 mmHg 97%
    04:00 +21°C° 0.1 mm 5 m/s 761 mmHg 97%
    05:00 +21°C° 0.1 mm 5 m/s 761 mmHg 97%
    06:00 +21°C° 0.1 mm 5 m/s 761 mmHg 97%
    07:00 +21°C° 0.1 mm 5 m/s 761 mmHg 97%
    08:00 +22°C° 0.2 mm 5 m/s 761 mmHg 92%
    09:00 +23°C° 0.2 mm 6 m/s 761 mmHg 87%
    10:00 +24°C° 0.2 mm 6 m/s 762 mmHg 82%
    11:00 +26°C° 0.2 mm 6 m/s 761 mmHg 79%
    12:00 +26°C° 0.2 mm 6 m/s 761 mmHg 77%
    13:00 +27°C° 0.2 mm 6 m/s 760 mmHg 74%
    14:00 +26°C° 0.2 mm 6 m/s 760 mmHg 76%
    15:00 +26°C° 0.2 mm 6 m/s 760 mmHg 77%
    16:00 +24°C° 0.2 mm 6 m/s 759 mmHg 79%
    17:00 +23°C° 0.1 mm 6 m/s 760 mmHg 85%
    18:00 +22°C° 0.1 mm 5 m/s 761 mmHg 91%
    19:00 +21°C° 0.1 mm 5 m/s 761 mmHg 96%
    20:00 +20°C° 0.2 mm 4 m/s 761 mmHg 97%
    21:00 +20°C° 0.2 mm 4 m/s 761 mmHg 97%
    22:00 +20°C° 0.2 mm 4 m/s 762 mmHg 97%
    23:00 +20°C° 0.2 mm 4 m/s 761 mmHg 98%

    Demain, 7 Juin, Dimanche

    Heure Température Précipitation Vent Pression Humidité
    00:00 +20°C° 0.2 mm 4 m/s 761 mmHg 98%
    01:00 +20°C° 0.2 mm 4 m/s 761 mmHg 98%
    02:00 +20°C° 0.1 mm 4 m/s 760 mmHg 98%
    03:00 +20°C° 0.1 mm 3 m/s 760 mmHg 98%
    04:00 +20°C° 0.1 mm 3 m/s 760 mmHg 98%
    05:00 +20°C° 0 mm 3 m/s 760 mmHg 97%
    06:00 +19°C° 0 mm 3 m/s 760 mmHg 97%
    07:00 +19°C° 0 mm 3 m/s 760 mmHg 97%
    08:00 +21°C° 0.1 mm 3 m/s 760 mmHg 89%
    09:00 +23°C° 0.1 mm 4 m/s 760 mmHg 81%
    10:00 +26°C° 0.1 mm 4 m/s 760 mmHg 73%
    11:00 +27°C° 0 mm 4 m/s 760 mmHg 68%
    12:00 +28°C° 0 mm 4 m/s 760 mmHg 63%
    13:00 +28°C° 0 mm 4 m/s 759 mmHg 59%
    14:00 +27°C° 0.2 mm 4 m/s 759 mmHg 66%
    15:00 +26°C° 0.2 mm 4 m/s 759 mmHg 74%
    16:00 +25°C° 0.2 mm 4 m/s 759 mmHg 81%
    17:00 +23°C° 0.2 mm 4 m/s 759 mmHg 86%
    18:00 +22°C° 0.2 mm 4 m/s 760 mmHg 91%
    19:00 +21°C° 0.2 mm 4 m/s 761 mmHg 96%
    20:00 +21°C° 0.1 mm 4 m/s 761 mmHg 97%
    21:00 +21°C° 0.1 mm 4 m/s 761 mmHg 97%
    22:00 +20°C° 0.1 mm 4 m/s 761 mmHg 98%
    23:00 +21°C° 0.3 mm 4 m/s 761 mmHg 98%

    Après-demain, 8 Juin, Lundi

    Heure Température Précipitation Vent Pression Humidité
    00:00 +21°C° 0.3 mm 4 m/s 761 mmHg 98%
    01:00 +21°C° 0.3 mm 4 m/s 761 mmHg 97%
    02:00 +20°C° 0.2 mm 4 m/s 761 mmHg 98%
    03:00 +20°C° 0.2 mm 4 m/s 760 mmHg 98%
    04:00 +20°C° 0.2 mm 4 m/s 760 mmHg 98%
    05:00 +20°C° 0.1 mm 5 m/s 760 mmHg 98%
    06:00 +19°C° 0.1 mm 5 m/s 761 mmHg 98%
    07:00 +19°C° 0.1 mm 5 m/s 761 mmHg 97%
    08:00 +21°C° 0.1 mm 5 m/s 761 mmHg 91%
    09:00 +23°C° 0.1 mm 5 m/s 761 mmHg 84%
    10:00 +24°C° 0.1 mm 6 m/s 762 mmHg 77%
    11:00 +26°C° 0.2 mm 6 m/s 761 mmHg 76%
    12:00 +26°C° 0.2 mm 6 m/s 761 mmHg 75%
    13:00 +27°C° 0.2 mm 6 m/s 761 mmHg 74%
    14:00 +26°C° 0.2 mm 6 m/s 761 mmHg 75%
    15:00 +26°C° 0.2 mm 6 m/s 761 mmHg 77%
    16:00 +24°C° 0.2 mm 6 m/s 761 mmHg 78%
    17:00 +23°C° 0.1 mm 6 m/s 761 mmHg 84%
    18:00 +21°C° 0.1 mm 6 m/s 761 mmHg 90%
    19:00 +20°C° 0.1 mm 5 m/s 762 mmHg 96%
    20:00 +20°C° 0.1 mm 6 m/s 762 mmHg 96%
    21:00 +20°C° 0.1 mm 6 m/s 762 mmHg 97%
    22:00 +20°C° 0.1 mm 6 m/s 762 mmHg 97%
    23:00 +21°C° 0.2 mm 6 m/s 762 mmHg 97%

    9 Juin, Mardi

    Heure Température Précipitation Vent Pression Humidité
    00:00 +21°C° 0.2 mm 6 m/s 762 mmHg 97%
    01:00 +21°C° 0.2 mm 6 m/s 762 mmHg 98%
    02:00 +21°C° 0.3 mm 6 m/s 761 mmHg 97%
    03:00 +21°C° 0.3 mm 6 m/s 761 mmHg 97%
    04:00 +22°C° 0.3 mm 6 m/s 761 mmHg 96%
    05:00 +21°C° 0.2 mm 6 m/s 761 mmHg 97%
    06:00 +21°C° 0.2 mm 6 m/s 762 mmHg 97%
    07:00 +21°C° 0.2 mm 6 m/s 762 mmHg 97%
    08:00 +22°C° 0.2 mm 6 m/s 762 mmHg 93%
    09:00 +23°C° 0.2 mm 7 m/s 762 mmHg 89%
    10:00 +24°C° 0.2 mm 7 m/s 763 mmHg 85%
    11:00 +26°C° 0.3 mm 7 m/s 762 mmHg 84%
    12:00 +26°C° 0.3 mm 7 m/s 762 mmHg 82%
    13:00 +26°C° 0.3 mm 7 m/s 761 mmHg 81%
    14:00 +26°C° 0.3 mm 6 m/s 761 mmHg 83%
    15:00 +24°C° 0.3 mm 6 m/s 761 mmHg 84%
    16:00 +24°C° 0.3 mm 6 m/s 761 mmHg 86%
    17:00 +23°C° 0.3 mm 6 m/s 761 mmHg 90%
    18:00 +22°C° 0.3 mm 5 m/s 762 mmHg 94%
    19:00 +21°C° 0.3 mm 5 m/s 762 mmHg 98%
    20:00 +21°C° 0.3 mm 5 m/s 762 mmHg 98%
    21:00 +21°C° 0.3 mm 5 m/s 763 mmHg 98%
    22:00 +22°C° 0.3 mm 4 m/s 763 mmHg 98%
    23:00 +22°C° 0.3 mm 4 m/s 763 mmHg 98%

    10 Juin, Mercredi

    Heure Température Précipitation Vent Pression Humidité
    00:00 +22°C° 0.3 mm 4 m/s 762 mmHg 98%
    01:00 +22°C° 0.3 mm 4 m/s 762 mmHg 98%
    02:00 +22°C° 0.2 mm 4 m/s 762 mmHg 98%
    03:00 +21°C° 0.2 mm 4 m/s 762 mmHg 97%
    04:00 +21°C° 0.2 mm 4 m/s 761 mmHg 97%
    05:00 +21°C° 0.2 mm 4 m/s 762 mmHg 97%
    06:00 +21°C° 0.2 mm 4 m/s 762 mmHg 98%
    07:00 +21°C° 0.2 mm 4 m/s 762 mmHg 98%
    08:00 +22°C° 0.3 mm 5 m/s 762 mmHg 95%
    09:00 +23°C° 0.3 mm 5 m/s 763 mmHg 93%
    10:00 +23°C° 0.3 mm 5 m/s 763 mmHg 91%
    11:00 +24°C° 0.3 mm 6 m/s 762 mmHg 88%
    12:00 +24°C° 0.3 mm 6 m/s 762 mmHg 85%
    13:00 +24°C° 0.3 mm 6 m/s 761 mmHg 82%
    14:00 +24°C° 0.2 mm 6 m/s 761 mmHg 82%
    15:00 +24°C° 0.2 mm 6 m/s 761 mmHg 82%
    16:00 +24°C° 0.2 mm 6 m/s 761 mmHg 83%
    17:00 +23°C° 0.1 mm 5 m/s 761 mmHg 87%
    18:00 +22°C° 0.1 mm 5 m/s 762 mmHg 92%
    19:00 +21°C° 0.1 mm 5 m/s 762 mmHg 96%
    20:00 +20°C° 0 mm 5 m/s 762 mmHg 97%
    21:00 +20°C° 0 mm 5 m/s 763 mmHg 97%
    22:00 +20°C° 0 mm 5 m/s 763 mmHg 97%
    23:00 +20°C° 0 mm 5 m/s 763 mmHg 97%

    11 Juin, Jeudi

    Heure Température Précipitation Vent Pression Humidité
    00:00 +19°C° 0 mm 4 m/s 762 mmHg 97%
    01:00 +19°C° 0 mm 4 m/s 762 mmHg 96%
    02:00 +19°C° 0 mm 4 m/s 761 mmHg 96%
    03:00 +19°C° 0 mm 4 m/s 761 mmHg 96%
    04:00 +20°C° 0 mm 4 m/s 761 mmHg 96%
    05:00 +20°C° 0 mm 4 m/s 761 mmHg 96%
    06:00 +20°C° 0 mm 4 m/s 761 mmHg 96%
    07:00 +20°C° 0 mm 5 m/s 762 mmHg 96%
    08:00 +22°C° 0 mm 5 m/s 762 mmHg 89%
    09:00 +23°C° 0 mm 6 m/s 762 mmHg 82%
    10:00 +26°C° 0 mm 6 m/s 762 mmHg 75%
    11:00 +27°C° 0 mm 6 m/s 761 mmHg 70%
    12:00 +28°C° 0 mm 6 m/s 761 mmHg 64%
    13:00 +29°C° 0 mm 6 m/s 760 mmHg 58%
    14:00 +28°C° 0 mm 6 m/s 760 mmHg 61%
    15:00 +28°C° 0 mm 6 m/s 759 mmHg 64%
    16:00 +28°C° 0 mm 6 m/s 759 mmHg 67%
    17:00 +26°C° 0 mm 6 m/s 760 mmHg 74%
    18:00 +23°C° 0 mm 5 m/s 760 mmHg 82%
    19:00 +22°C° 0 mm 5 m/s 760 mmHg 89%
    20:00 +22°C° 0.1 mm 5 m/s 761 mmHg 91%
    21:00 +21°C° 0.1 mm 5 m/s 761 mmHg 93%
    22:00 +21°C° 0.1 mm 4 m/s 761 mmHg 95%
    23:00 +21°C° 0.1 mm 4 m/s 761 mmHg 95%
    Voir plus